Preview of NWS' New Version of Forecast
This preview is not operational and should not be used for support decisions.

Regional Weather Roundup (RWR)

Issued by National Weather Service (NWS)

                            
000
ASUS43 KDMX 221001
RWRIA 

WEATHER ROUNDUP FOR IOWA
NATIONAL WEATHER SERVICE DES MOINES IA
500 AM CDT MON APR 22 2019

NOTE: "FAIR" INDICATES FEW OR NO CLOUDS BELOW 12,000 FEET WITH NO
SIGNIFICANT WEATHER AND/OR OBSTRUCTIONS TO VISIBILITY.

* - THESE STATIONS ARE NOT NWS STATIONS...THUS NOT UNDER NWS
QUALITY CONTROL.  THEY ALSO DO NOT REPORT WEATHER SUCH 
AS PRECIPITATION OR FOG.  

IAZ001>003-012>014-020>022-031>034-043>046-221100-
   NORTHWEST IOWA
  
CITY           SKY/WX    TMP DP  RH WIND       PRES   REMARKS
CARROLL *      CLOUDY    64  48  55 S17       29.78R                  
CHEROKEE *     LGT RAIN  49  46  90 N17G24    29.84R                  
DENISON *      CLOUDY    64  50  59 S10       29.80R                  
LE MARS *        N/A    N/A N/A N/A MISG        N/A                   
SHELDON *      CLOUDY    46  46 100 NE16G25   29.79F                  
SIOUX CITY     CLOUDY    52  49  89 N20G29    29.78R                  
SPENCER        CLOUDY    48  44  86 N23G32    29.82R                  
STORM LAKE *   CLOUDY    50  48  93 N20       29.78R                  
$$
 
IAZ055>058-069>071-079>083-090>094-221100-
   SOUTHWEST IOWA
  
CITY           SKY/WX    TMP DP  RH WIND       PRES   REMARKS
ATLANTIC *     CLOUDY    64  52  63 S9        29.78F                  
AUDUBON *      CLOUDY    64  50  59 CALM      29.80S                  
CLARINDA *     CLOUDY    63  54  72 CALM      29.78F                  
COUNCIL BLFS * CLOUDY    64  52  63 SW7       29.80R                  
CRESTON *      CLOUDY    63  50  63 S14       29.84S                  
HARLAN  *      CLOUDY    63  50  63 S10G17    29.79S                  
LAMONI         CLOUDY    62  48  60 S8        29.87R                  
RED OAK *      CLOUDY    63  54  72 S6        29.77F                  
SHENANDOAH *   CLOUDY    64  52  63 SW8G14    29.76R                  
$$
 
IAZ047>049-059>061-072>074-084-221100-
   CENTRAL IOWA
  
CITY           SKY/WX    TMP DP  RH WIND       PRES   REMARKS
AMES           CLOUDY    64  48  56 S13       29.81R                  
ANKENY *       PTCLDY    66  48  52 S14G21    29.83S                  
BOONE *        MOCLDY    66  48  52 S13G20    29.80R                  
CHARITON *     CLOUDY    64  50  59 S15       29.85F                  
DES MOINES     CLOUDY    66  47  50 S15       29.83R                  
GRINNELL*      MOCLDY    62  47  58 S13       29.86F                  
KNOXVILLE *    PTCLDY    68  48  49 S16       29.84F                  
MARSHALLTOWN   CLOUDY    65  48  54 S20G28    29.82R                  
NEWTON *       PTCLDY    63  48  59 S14       29.85R                  
PELLA *        CLOUDY    65  47  52 S9        29.86F                  
PERRY *        FAIR      61  46  58 S10       29.80R                  
$$
 
IAZ004>006-015-016-023>025-035-036-221100-
   NORTH CENTRAL IOWA
  
CITY           SKY/WX    TMP DP  RH WIND       PRES   REMARKS
ALGONA *         N/A     54  50  87 N9G17     29.80S                  
CLARION *      CLOUDY    59  46  63 SE9       29.79S                  
ESTHERVILLE    CLOUDY    45  42  89 N20G28    29.84R                  
FORT DODGE *   MOCLDY    63  49  60 S9        29.78R                  
MASON CITY     CLOUDY    58  49  72 SE8       29.83R                  
FOREST CITY *  FAIR      59  46  63 E5        29.82R                  
IOWA FALLS *   FAIR      64  48  57 S14       29.82S                  
$$

IAZ007>011-017>019-026>030-037>042-050>054-066-221100-
   NORTHEAST IOWA
  
CITY           SKY/WX    TMP DP  RH WIND       PRES   REMARKS
CEDAR RAPIDS   FAIR      59  47  64 S9        29.87F                  
CHARLES CITY * MOCLDY    61  46  59 SE10      29.85R                  
CLINTON *      FAIR      58  47  66 SE9       29.94F                  
DECORAH *      FAIR      59  45  58 S10       29.86S                  
DUBUQUE        FAIR      58  45  62 S12       29.92S                  
MONTICELLO *   FAIR      61  46  59 S7G13     29.90R                  
OELWEIN *      FAIR      61  48  63 S13       29.88R                  
WATERLOO       MOCLDY    63  47  55 S14       29.84R                  
$$
 
IAZ064-065-067-068-078-221100-
   EAST CENTRAL IOWA
  
CITY           SKY/WX    TMP DP  RH WIND       PRES   REMARKS
DAVENPORT      FAIR      64  46  52 S14       29.94F                  
IOWA CITY      FAIR      58  47  66 CALM      29.90F                  
MT. PLEASANT * CLOUDY    63  50  63 S10       29.93S                  
MUSCATINE *    FAIR      63  48  59 SE6       29.91F                  
QUAD CITIES    FAIR      65  47  52 S12       29.92F                  
$$
 
IAZ062-063-075>077-085>089-095>099-221100-
   SOUTHEAST IOWA
  
CITY           SKY/WX    TMP DP  RH WIND       PRES   REMARKS
BURLINGTON     CLOUDY    63  48  58 S13       29.94F                  
FAIRFIELD *    MOCLDY    64  46  52 S10       29.89F                  
FORT MADISON * PTCLDY    64  50  59 S9        29.95S                  
KEOKUK *       CLOUDY    66  48  52 S9        29.94S                  
OSKALOOSA *    FAIR      66  47  49 S17       29.87F                  
CENTERVILLE *  FAIR      66  48  52 S15       29.91S                  
OTTUMWA        CLOUDY    68  48  48 S15G26    29.87F                  
WASHINGTON *   PTCLDY    64  48  55 S13       29.90F                  
$$

ABBREVIATIONS USED IN REMARKS
   TC - TEMPERATURES IN CELSIUS
  WCI - WIND CHILL INDEX
   HX - HEAT INDEX
  VSB - VISIBILITY  
$$